Location: Berg
(48.5667°N, 13.9833°E)
Time: 13:55:38
(UTC+00:00)

Cosmos 2228 - Pass Details

Date: 09 April 2020
Orbit: 589 x 619 km, 82.5° (Epoch: 23 May)

Event Time Altitude Azimuth Distance (km) Brightness Sun altitude
Rises 19:07:06 0° 205° (SSW) 2,840 6.4 -13.2°
Reaches altitude 10° 19:09:22 10° 212° (SSW) 1,947 5.6 -13.5°
Maximum altitude 19:13:30 44° 285° (WNW) 842 4.3 -14.1°
Drops below altitude 10° 19:17:43 10° 358° (N) 1,980 6.1 -14.7°
Sets 19:20:03 0° 5° (N) 2,894 6.9 -15.0°
